Temperature
18 18 18 18 18 18 17 17 17 17 17 17 17 17 18 18 18 18 18 18 18 18 18 18 18 18 18 18 18 18 17 17 17 17 17 17 17 17 17 17 17 16 16
18 18 18 18 18 17 17 17 17 17 17 17 17 17 17 17 18 18 18 17 18 18 18 18 18 18 18 18 18 18 18 17 17 17 17 17 17 17 17 17 17 17 16
17 17 17 17 17 17 17 17 17 17 17 17 17 17 17 17 17 17 17 17 17 17 17 18 18 18 18 18 18 18 18 18 17 17 17 17 17 17 17 17 17 17 17
17 17 17 17 17 17 16 16 16 16 16 16 16 17 17 17 17 17 17 17 17 17 17 17 17 18 18 18 18 18 18 18 18 17 17 17 17 17 17 17 17 17 17
17 17 16 16 16 16 16 16 16 16 16 16 16 16 17 17 17 17 17 17 17 17 17 17 17 17 17 18 18 18 18 18 18 18 17 17 17 17 17 17 17 17 17
16 16 16 16 16 16 16 16 16 15 15 16 16 16 16 17 17 17 17 17 17 17 17 17 17 17 17 17 17 18 18 18 18 18 17 17 17 17 17 17 17 17 17
16 16 16 16 15 15 15 15 15 15 15 15 15 16 16 17 17 17 17 17 17 17 17 17 17 17 17 17 17 17 17 17 18 18 18 18 17 17 17 17 17 17 17
16 15 15 15 15 15 15 15 14 14 14 15 15 15 16 16 17 17 17 17 17 17 17 17 16 16 16 16 17 17 17 17 17 17 18 18 17 17 17 17 17 17 17
15 15 15 15 14 14 14 14 14 14 14 14 14 14 15 16 16 17 17 17 17 17 16 16 16 16 16 16 16 17 17 17 17 17 17 17 17 17 17 17 17 17 17
15 15 14 14 14 14 13 13 14 14 14 14 14 14 14 15 14 15 16 16 16 16 16 16 16 16 16 16 16 16 17 17 17 17 17 17 17 17 17 17 17 17 17
15 15 14 14 13 13 13 13 13 13 13 13 13 13 14 14 14 14 14 15 15 16 16 16 16 16 16 16 16 16 16 16 17 17 17 17 17 17 17 17 17 17 17
14 14 14 13 13 13 12 12 12 12 12 12 12 13 13 13 14 14 14 14 15 15 16 16 16 16 16 16 16 16 16 16 16 16 17 17 17 17 17 17 17 17 17
14 14 13 13 13 12 12 12 12 12 12 12 12 12 12 13 13 13 14 14 14 14 15 15 16 16 16 16 16 16 16 16 16 16 16 16 16 17 17 17 17 17 17
13 13 12 12 12 11 11 11 11 11 11 11 11 12 12 12 12 13 13 13 13 14 14 15 15 15 15 15 15 15 15 15 16 16 16 16 16 16 17 17 17 17 17
12 12 12 12 11 11 11 11 11 11 11 11 11 11 11 12 12 12 12 13 13 13 13 14 14 15 15 15 15 15 15 15 15 16 16 16 16 16 16 16 17 17 17
12 12 11 11 11 11 11 11 10 10 11 11 11 11 11 11 11 12 12 12 13 13 13 13 14 14 14 14 14 14 15 15 15 15 15 16 16 16 16 16 16 17 17
11 11 11 11 10 10 10 10 10 10 10 10 10 11 11 11 11 11 11 12 12 12 12 13 13 13 14 14 14 14 14 14 15 15 15 15 16 16 16 16 16 16 16
11 11 11 10 10 10 10 10 10 10 10 10 10 10 10 10 10 11 11 11 11 12 12 12 12 13 13 13 13 14 14 14 14 15 15 15 15 15 16 16 16 16 16
11 11 10 10 10 10 10 10 10 10 10 10 10 10 10 10 10 10 10 10 11 11 11 12 12 12 13 13 13 13 13 14 14 14 14 15 15 15 15 16 16 16 16
11 11 10 10 10 10 10 10 10 10 10 9 9 9 9 10 10 10 10 10 10 10 11 11 11 12 12 12 13 13 13 14 14 14 14 14 15 15 15 15 16 16 16
11 11 10 10 10 10 10 10 10 10 9 9 9 9 9 9 9 9 9 9 10 10 10 10 11 11 12 12 12 12 13 13 13 13 14 14 14 14 15 15 15 16 16
11 11 10 10 10 10 10 10 10 10 9 9 9 9 9 9 9 9 9 9 9 9 10 10 10 10 11 11 12 12 12 12 13 13 13 13 14 14 14 15 15 15 16
11 11 11 10 10 10 10 10 9 9 9 9 9 9 9 9 9 9 9 9 9 9 9 9 10 10 11 11 11 11 11 12 12 12 13 13 13 14 14 15 15 15 15
11 11 10 10 10 10 10 9 9 9 9 9 9 9 8 9 9 9 9 9 9 9 9 9 9 10 10 10 10 11 11 11 12 12 12 12 13 13 13 14 14 15 15
11 11 10 10 10 10 10 9 9 9 9 9 9 8 8 8 8 8 8 8 9 9 9 9 9 9 10 10 10 10 10 10 11 11 12 12 12 12 13 13 14 14 14
11 11 10 10 10 10 10 10 9 9 9 8 8 8 8 8 8 8 8 8 8 8 8 8 9 9 9 10 10 10 10 10 11 11 11 12 12 12 12 12 13 13 14
Wind_Speed
1 1 1 2 2 2 2 1 2 3 4 6 8 9 7 9 8 7 7 17 20 20 19 19 20 20 20 20 20 20 19 18 18 18 17 16 16 15 14 14 13 13 12
2 1 1 0 2 2 2 3 4 3 4 5 6 7 7 9 9 10 9 14 19 20 21 21 21 21 22 22 22 22 21 21 20 20 19 18 17 17 16 15 15 14 14
2 0 1 1 1 2 3 4 4 4 4 5 6 6 6 7 8 9 10 11 15 20 22 22 23 23 23 24 24 24 24 23 23 22 22 21 20 19 18 17 16 16 15
0 1 1 0 2 3 2 2 2 2 3 3 4 5 5 5 7 9 10 11 12 14 19 24 24 25 25 25 25 25 26 26 25 25 24 23 22 21 21 20 19 18 17
1 2 1 1 3 2 2 3 2 2 3 4 5 6 6 6 6 8 8 11 13 14 14 21 27 27 27 27 26 26 27 27 27 27 26 25 24 24 23 22 21 20 19
2 3 1 2 3 2 2 3 3 3 4 4 7 6 5 7 6 7 8 8 12 15 16 17 20 24 28 28 28 28 28 29 29 29 28 27 27 26 25 24 23 22 21
2 2 2 1 2 2 2 3 3 5 5 4 4 5 6 7 7 7 7 7 8 11 13 16 16 17 19 28 29 29 29 29 30 30 30 29 28 28 27 26 25 24 23
1 2 2 3 3 3 3 3 3 3 5 4 4 5 5 5 3 6 5 6 6 5 6 12 14 16 17 18 24 30 30 30 31 31 31 31 30 29 29 28 27 26 25
1 2 2 3 3 5 4 3 3 4 4 5 4 3 4 4 5 4 4 3 3 3 5 5 10 14 17 16 17 26 31 31 32 32 32 31 31 31 30 29 28 27 27
2 3 3 2 2 4 6 6 4 4 4 5 5 4 4 4 3 5 5 4 3 4 4 6 6 9 15 17 17 19 27 31 32 33 33 32 32 32 31 30 29 29 28
4 4 3 1 1 3 5 5 6 5 5 5 5 5 5 4 5 5 6 5 5 4 4 5 4 5 10 14 16 19 23 28 31 33 33 33 32 32 32 32 31 30 29
3 2 1 2 2 3 5 5 5 6 5 6 5 5 6 5 5 5 6 6 6 5 4 4 4 5 7 11 15 17 20 23 28 32 33 33 33 33 32 32 32 31 30
4 5 5 4 3 4 5 5 6 6 6 7 6 6 6 6 6 6 5 6 6 6 5 5 4 3 6 8 10 13 16 20 24 28 31 32 33 32 32 32 33 32 32
4 5 5 4 5 5 6 5 5 7 6 6 8 7 6 6 6 6 5 5 6 6 6 6 4 3 2 4 8 10 12 16 20 24 28 30 32 32 32 32 32 32 32
6 6 6 6 6 6 6 6 5 7 7 7 7 7 6 5 6 6 5 5 5 7 7 6 4 3 2 4 6 8 9 12 16 20 25 26 28 30 31 31 31 31 32
5 6 6 6 7 7 7 6 6 7 7 7 6 7 7 6 6 6 6 5 5 7 7 5 5 4 2 3 5 6 8 12 14 18 22 25 27 28 29 30 31 31 31
5 6 6 7 6 7 7 6 7 8 8 8 8 8 8 8 7 6 6 6 6 6 8 7 5 5 4 4 3 5 7 8 10 15 19 23 25 26 28 29 30 30 31
6 6 6 7 7 7 6 6 7 8 8 8 8 8 8 8 8 7 7 8 7 7 7 8 7 6 6 5 4 5 5 6 7 11 15 19 22 24 26 28 29 29 29
6 6 6 7 7 7 7 7 7 8 8 8 8 8 8 8 8 7 7 8 7 9 7 7 7 6 5 5 4 4 5 4 5 8 11 15 18 22 24 26 27 27 27
6 6 6 6 7 7 8 8 7 7 7 7 8 8 8 9 9 8 8 8 8 8 8 8 8 6 6 5 4 3 4 3 3 4 5 8 12 17 21 23 24 25 26
8 6 6 7 7 8 7 4 5 8 7 8 9 9 10 11 11 9 10 7 7 6 6 7 7 6 6 5 4 3 3 3 3 3 3 3 5 7 11 16 20 22 23
6 6 7 7 8 9 2 2 4 7 8 9 10 9 11 12 13 14 15 14 12 10 8 7 7 7 7 5 4 4 3 2 3 2 2 3 4 6 6 10 16 19 21
6 6 7 7 7 7 7 7 7 7 9 9 10 10 12 13 10 8 9 13 14 17 16 11 10 9 9 7 5 5 4 4 4 2 2 2 2 4 4 8 16 19 20
6 6 7 8 7 9 8 8 9 8 10 10 11 11 10 10 11 9 8 8 8 9 12 12 11 12 11 8 6 6 5 4 4 3 3 2 2 2 2 4 12 17 19
6 7 8 8 8 8 8 9 9 7 9 10 11 10 10 9 10 9 7 8 9 9 12 14 14 14 14 12 7 4 3 4 4 4 4 3 2 1 1 2 6 13 16
7 8 8 7 8 9 9 10 10 7 9 9 9 9 10 9 9 7 6 7 9 9 9 10 8 10 11 11 12 9 6 5 4 4 4 4 3 3 1 1 4 7 9
Wind_Direction
57 55 38 17 307 287 242 239 256 255 262 257 245 241 241 251 254 259 196 184 183 184 189 193 195 197 199 200 200 199 197 197 194 192 190 189 186 184 183 182 179 176 174
49 25 306 266 296 306 307 283 263 248 241 248 254 255 249 246 243 240 227 202 196 194 198 201 204 204 205 204 203 203 201 201 199 196 195 194 192 190 190 189 187 186 185
71 287 259 226 276 270 257 254 260 257 249 250 251 257 256 252 252 245 242 224 208 206 206 208 209 209 210 209 207 206 204 203 202 200 199 198 197 195 195 194 193 192 192
31 265 271 80 325 284 259 251 238 273 284 283 274 268 263 254 250 246 244 242 229 219 214 214 213 213 212 212 211 209 206 205 204 203 202 201 201 200 199 199 198 197 197
3 356 37 46 319 313 317 323 32 339 306 292 277 257 249 246 242 247 239 235 232 229 222 217 215 215 215 215 214 212 209 208 205 205 205 204 204 203 202 202 203 202 202
43 7 314 57 348 334 348 1 342 313 287 271 282 288 269 253 242 239 239 237 230 228 228 225 214 218 218 216 215 214 212 211 208 206 206 207 206 205 204 204 205 205 206
53 343 343 348 301 335 351 331 333 314 301 292 291 291 275 252 238 229 226 231 228 225 228 226 215 212 216 220 218 216 215 214 211 208 208 208 207 206 205 205 206 208 209
2 300 29 327 336 334 291 286 280 283 302 314 307 303 303 292 289 257 226 227 233 227 233 233 219 214 215 215 218 219 218 217 214 211 209 209 208 207 207 206 207 209 211
330 332 315 307 330 316 309 326 296 290 293 300 285 285 302 314 334 305 306 279 249 242 241 234 225 218 219 219 216 218 218 219 217 214 212 210 209 208 208 208 208 210 211
298 285 281 299 325 317 316 310 334 331 310 300 300 284 268 282 288 309 314 315 298 272 263 259 244 224 219 222 223 220 218 219 218 216 214 212 210 209 208 209 210 212 213
263 255 247 257 316 298 305 321 321 314 305 297 300 306 303 291 256 254 283 298 299 282 265 259 252 240 224 217 221 225 222 219 218 217 215 213 211 211 210 210 212 214 214
301 306 322 44 341 314 318 314 306 295 287 290 294 295 296 293 290 280 281 290 291 288 279 263 250 243 237 224 225 229 226 221 218 217 216 214 213 212 213 213 214 215 216
329 26 22 12 336 318 303 289 287 282 283 285 281 275 279 286 290 288 290 292 295 294 286 272 249 229 241 235 229 233 231 224 220 217 216 215 214 213 213 215 215 216 217
339 5 351 332 315 303 300 308 305 290 283 282 280 278 277 279 283 285 283 289 295 294 287 280 267 235 243 248 236 233 233 226 221 219 218 217 215 213 212 213 214 215 216
326 347 341 323 310 303 300 298 288 290 290 285 280 280 274 275 276 274 274 268 270 282 285 286 286 256 227 246 235 232 238 231 225 221 218 216 215 213 211 212 213 214 215
310 315 309 305 300 298 294 290 288 285 289 285 277 275 279 276 278 280 274 271 264 265 275 279 284 281 284 279 247 244 241 235 231 224 218 216 214 212 210 211 212 213 213
307 297 294 294 293 290 286 284 284 284 283 282 282 282 279 278 276 280 282 278 271 267 272 277 274 277 270 269 270 260 251 238 234 227 221 217 214 212 211 211 211 211 212
299 296 297 295 291 291 292 292 290 292 292 290 287 284 282 282 276 272 272 276 275 271 271 277 279 275 269 259 253 258 255 246 234 228 222 219 216 214 211 210 210 209 210
292 292 288 288 290 292 289 285 280 280 282 285 287 286 283 281 281 276 274 273 275 277 275 275 277 269 265 258 251 259 258 248 237 226 217 217 217 215 212 209 208 207 207
290 285 284 285 285 284 281 279 281 284 288 290 289 287 285 279 274 273 274 268 270 272 276 278 275 274 265 258 239 247 265 247 233 224 209 204 210 211 211 208 206 204 204
287 289 291 287 284 281 281 298 307 298 304 301 294 288 283 280 275 269 271 273 282 282 280 278 277 278 270 266 251 233 248 262 242 222 200 188 188 198 203 205 204 201 200
288 287 283 284 284 289 295 279 285 299 295 291 289 287 286 278 268 253 249 250 250 258 265 269 275 276 278 280 283 261 242 258 262 220 201 214 187 190 195 196 196 194 195
292 289 286 285 285 286 266 247 251 273 283 282 283 283 285 285 297 290 267 254 249 246 243 249 259 266 276 276 284 280 261 246 253 239 206 231 203 198 181 183 182 184 187
288 288 286 286 285 286 271 245 246 260 275 276 273 271 273 276 281 285 289 283 272 259 245 240 243 250 256 261 259 264 259 260 256 226 201 215 225 209 158 147 171 175 177
286 285 283 279 278 280 266 241 237 271 275 277 275 275 273 272 271 267 267 273 276 275 271 257 236 235 237 239 233 241 246 250 253 236 201 189 176 145 118 134 149 163 166
282 284 285 286 284 280 264 235 226 262 279 286 286 280 272 271 274 258 255 265 270 273 282 287 274 252 240 234 224 220 225 233 242 235 198 176 162 143 137 114 138 147 151
Height
1552 1553 1553 1555 1555 1556 1556 1556 1557 1558 1558 1559 1559 1560 1561 1561 1563 1564 1564 1565 1567 1569 1570 1572 1575 1577 1579 1581 1583 1585 1587 1590 1592 1595 1597 1599 1602 1604 1606 1608 1610 1612 1613
1550 1551 1552 1552 1553 1554 1554 1554 1554 1555 1555 1556 1556 1557 1557 1557 1559 1560 1561 1561 1563 1565 1567 1569 1571 1573 1576 1578 1580 1582 1585 1587 1590 1592 1595 1597 1600 1602 1605 1607 1609 1611 1613
1549 1549 1550 1550 1551 1551 1551 1552 1552 1552 1553 1553 1553 1553 1553 1553 1554 1555 1557 1558 1559 1560 1562 1564 1566 1569 1571 1574 1576 1579 1581 1584 1587 1589 1592 1595 1597 1600 1603 1605 1607 1609 1611
1548 1548 1548 1549 1549 1549 1550 1550 1550 1550 1550 1550 1550 1550 1550 1550 1550 1551 1552 1553 1555 1556 1557 1559 1561 1564 1566 1569 1572 1574 1577 1580 1583 1586 1588 1591 1594 1597 1600 1602 1605 1607 1610
1547 1547 1547 1547 1548 1548 1548 1548 1547 1547 1547 1547 1546 1546 1546 1546 1546 1547 1547 1548 1550 1551 1552 1554 1556 1558 1561 1563 1566 1569 1572 1575 1578 1581 1584 1587 1590 1593 1596 1599 1602 1605 1607
1546 1546 1546 1546 1546 1546 1546 1545 1545 1545 1544 1544 1543 1543 1542 1542 1542 1542 1542 1543 1544 1546 1547 1549 1550 1552 1555 1557 1560 1563 1566 1570 1573 1576 1580 1583 1586 1589 1592 1595 1598 1601 1604
1545 1545 1545 1544 1544 1544 1544 1543 1543 1542 1542 1542 1541 1539 1539 1538 1538 1538 1538 1539 1540 1541 1542 1543 1544 1546 1548 1551 1554 1557 1560 1564 1567 1570 1574 1578 1581 1584 1588 1591 1594 1598 1601
1543 1544 1543 1542 1542 1542 1541 1541 1540 1539 1539 1539 1539 1537 1536 1536 1534 1534 1534 1534 1535 1536 1537 1538 1538 1540 1542 1545 1547 1550 1554 1557 1560 1564 1568 1572 1576 1579 1583 1586 1590 1593 1597
1541 1541 1540 1539 1539 1539 1539 1538 1538 1537 1537 1537 1537 1537 1536 1534 1532 1531 1531 1531 1531 1532 1533 1533 1533 1535 1537 1539 1540 1543 1547 1550 1554 1557 1561 1565 1569 1573 1577 1581 1585 1588 1592
1539 1538 1537 1537 1536 1535 1535 1535 1535 1534 1534 1534 1534 1534 1534 1533 1533 1530 1529 1529 1529 1529 1529 1529 1529 1529 1531 1532 1534 1536 1539 1543 1547 1550 1554 1558 1562 1567 1571 1575 1579 1583 1587
1536 1535 1534 1533 1532 1532 1532 1531 1531 1530 1530 1530 1530 1530 1530 1530 1530 1529 1527 1526 1526 1526 1525 1525 1524 1525 1525 1526 1528 1530 1533 1535 1539 1543 1547 1551 1555 1560 1564 1568 1573 1577 1581
1534 1534 1532 1530 1529 1529 1528 1528 1527 1526 1526 1526 1526 1526 1527 1527 1527 1526 1525 1524 1523 1522 1522 1521 1520 1520 1521 1521 1522 1524 1526 1528 1531 1535 1539 1543 1548 1552 1556 1561 1566 1570 1574
1532 1531 1529 1528 1527 1526 1525 1524 1524 1523 1523 1523 1522 1522 1523 1523 1523 1523 1522 1520 1519 1518 1518 1517 1516 1516 1516 1516 1517 1518 1519 1521 1523 1527 1531 1535 1540 1544 1549 1554 1558 1563 1568
1529 1527 1526 1525 1523 1522 1522 1521 1520 1519 1519 1519 1519 1519 1518 1518 1518 1518 1518 1518 1516 1515 1514 1513 1513 1512 1512 1511 1512 1512 1513 1515 1516 1519 1523 1528 1532 1537 1542 1547 1552 1556 1561
1525 1524 1522 1521 1520 1519 1518 1517 1516 1516 1515 1515 1515 1514 1514 1514 1514 1514 1514 1514 1514 1512 1510 1510 1509 1509 1508 1507 1507 1507 1508 1508 1510 1512 1516 1520 1524 1529 1535 1539 1544 1549 1554
1521 1520 1519 1517 1516 1515 1514 1513 1512 1512 1512 1511 1510 1510 1510 1509 1509 1509 1509 1509 1509 1508 1506 1505 1505 1505 1504 1503 1503 1503 1502 1503 1504 1506 1508 1512 1517 1522 1527 1532 1537 1542 1547
1518 1516 1515 1514 1513 1512 1511 1510 1509 1508 1507 1507 1506 1506 1505 1505 1504 1504 1504 1504 1504 1504 1502 1501 1501 1501 1500 1499 1498 1498 1498 1498 1498 1499 1501 1505 1509 1514 1519 1525 1530 1535 1540
1515 1513 1512 1511 1509 1508 1507 1506 1505 1504 1503 1502 1502 1501 1500 1500 1499 1499 1499 1499 1499 1499 1498 1496 1496 1496 1495 1495 1494 1493 1493 1493 1493 1493 1495 1498 1502 1507 1512 1517 1523 1528 1533
1511 1510 1509 1507 1506 1505 1503 1502 1501 1500 1499 1498 1497 1496 1495 1495 1494 1493 1493 1493 1493 1493 1493 1492 1491 1491 1490 1490 1489 1489 1488 1488 1488 1488 1490 1492 1495 1500 1505 1510 1515 1521 1526
1508 1507 1505 1504 1502 1501 1500 1498 1497 1496 1495 1494 1493 1491 1490 1489 1489 1488 1488 1488 1488 1487 1487 1487 1486 1486 1486 1486 1485 1484 1484 1483 1483 1484 1485 1486 1489 1493 1498 1503 1509 1514 1519
1505 1503 1502 1500 1499 1497 1496 1495 1494 1492 1491 1489 1487 1486 1485 1484 1483 1483 1483 1482 1482 1482 1481 1481 1481 1481 1481 1481 1481 1480 1480 1479 1479 1480 1480 1482 1484 1487 1491 1496 1502 1507 1512
1502 1500 1498 1496 1495 1494 1493 1491 1489 1487 1485 1483 1481 1479 1479 1478 1477 1477 1476 1476 1476 1476 1476 1476 1476 1476 1476 1477 1477 1476 1476 1476 1475 1476 1476 1478 1480 1482 1485 1490 1495 1500 1505
1498 1496 1494 1492 1491 1489 1488 1486 1484 1482 1479 1477 1475 1474 1473 1473 1472 1471 1470 1469 1469 1469 1470 1470 1469 1470 1471 1472 1472 1472 1472 1471 1471 1471 1473 1473 1475 1477 1480 1484 1489 1494 1499
1494 1492 1490 1488 1486 1485 1483 1481 1479 1477 1474 1472 1470 1468 1467 1466 1466 1465 1464 1463 1463 1463 1463 1463 1463 1463 1465 1466 1467 1468 1467 1467 1467 1468 1469 1469 1471 1473 1476 1479 1484 1488 1493
1490 1488 1486 1484 1482 1480 1478 1476 1474 1472 1469 1467 1465 1464 1462 1461 1460 1459 1458 1457 1457 1456 1457 1457 1457 1457 1458 1460 1461 1462 1463 1463 1462 1463 1465 1466 1467 1469 1471 1474 1478 1483 1487
1486 1484 1482 1480 1478 1476 1474 1472 1470 1468 1465 1463 1461 1459 1458 1456 1455 1454 1453 1451 1450 1450 1451 1451 1451 1451 1452 1453 1454 1456 1457 1458 1458 1459 1461 1462 1464 1466 1468 1470 1474 1478 1482